Location: Lane
(33.5226°N, 79.8788°W)
Time: 08:58:10
(UTC+00:00)

Altair - Pass Details

Date: 07 October 2022
Orbit: 1501 x 1682 km, 47.2° (Epoch: 30 November)

Event Time Altitude Azimuth Distance (km) Brightness Sun altitude
Rises 06:38:51 0° 195° (SSW) 4,659 - -54.9°
Reaches altitude 10° 06:42:18 10° 185° (S) 3,700 - -54.4°
Maximum altitude 06:50:09 31° 127° (SE) 2,483 - -53.2°
Exits shadow 06:54:14 23° 90° (E) 2,902 9.1 -52.6°
Drops below altitude 10° 06:58:15 10° 70° (ENE) 3,831 10.0 -52.0°
Sets 07:01:52 0° 61° (ENE) 4,846 10.7 -51.4°
